Current Version              Previous Version:    01  02  03  04  05  06  07  08  09  10  11  12  13  14  15  16  17  18  19  20  21  22  23  24  25  26  27  28  29  30  
   31  32  33  34  35  36  37  38  39  40  41  42  43  44  45  46  47  48  49  50  51  52  53  54  55  56  57  58  59  60  

[Printable]
268
ASUS44 KLUB 010501
RWRTX
WEST TEXAS WEATHER ROUNDUP
NATIONAL WEATHER SERVICE LUBBOCK TX
1100 PM CST SAT JAN 31 2015

NOTE: "FAIR" INDICATES FEW OR NO CLOUDS BELOW 12,000 FEET WITH NO
SIGNIFICANT WEATHER AND/OR OBSTRUCTIONS TO VISIBILITY.

TXZ004-006>008-010-012-014-016-OKZ002-010600-
TEXAS PANHANDLE/OKLAHOMA PANHANDLE

CITY           SKY/WX    TMP DP  RH WIND       PRES   REMARKS
AMARILLO       CLOUDY    41  40  96 SW6       29.83S
BORGER         CLOUDY    44  39  82 W5        29.82S
CANADIAN       CLOUDY    43  41  93 SW8       29.82F
DALHART        LGT RAIN  42  38  85 W8        29.84R
GUYMON         LGT RAIN  42  39  89 N12       29.82R
$$

TXZ026-029-035-045-048-010600-
SOUTHERN PANHANDLE/SOUTH PLAINS/ROLLING PLAINS

CITY           SKY/WX    TMP DP  RH WIND       PRES   REMARKS
CHILDRESS      CLOUDY    43  42  97 S7        29.85F FOG
LUBBOCK        PTCLDY    44  43  96 SW10      29.84S
$$

TXZ052-054-060>062-072-078-127-140-154-169-010600-
PERMIAN BASIN/CONCHO VALLEY/BIG COUNTRY/EDWARDS PLATEAU

CITY           SKY/WX    TMP DP  RH WIND       PRES   REMARKS
ABILENE        MOCLDY    53  52  96 SW6       29.88S
BROWNWOOD      MOCLDY    52  52 100 SE7       29.90F FOG
JUNCTION       CLOUDY    58  55  90 VRB5      29.91R
MIDLAND        CLOUDY    50  49  96 S10       29.88S FOG
ODESSA         FOG       50  48  93 S9        29.88F VSB 3/4
SAN ANGELO     CLOUDY    58  54  86 S15       29.89R
WINK           PTCLDY    46  42  86 CALM      29.88R FOG
$$

TXZ055-058-074-075-080-082-010600-
FAR WEST/SOUTHWEST MOUNTAINS/TRANS PECOS

CITY           SKY/WX    TMP DP  RH WIND       PRES   REMARKS
DRYDEN           N/A     53  52  96 E9        29.89F
EL PASO        MOCLDY    53  42  66 W5        29.92R
FORT STOCKTON  CLEAR     49  48  97 S3        29.89F
GUADALUPE PASS MOCLDY    42  41  96 SW16      29.94S
MARFA          CLEAR     37  36  93 N3        29.97R
$$

TXZ014-016-019-021>030-083-010600
TEXAS TECH WEST TEXAS MESONET/TEXAS PANHANDLE/NORTHERN SOUTH PLAINS

CITY           SKY/WX    TMP DP  RH WIND       PRES   REMARKS
ABERNATHY 5ENE   N/A     41  41  98 S9        29.84F
AMARILLO 9NNE    N/A     42  40  95 S5        29.82F
AMARILLO 7SSE    N/A     41  40  97 S5        29.84S
AMHERST 1NE      N/A     44  44  99 SW9       29.84S
BOOTLEG 11WNW    N/A     39  37  95 SW20      29.84R WCI  29
CANADIAN 6E      N/A     40  39  95 SW7       29.81S
CAPROCK CYN SP   N/A     40  40 100 S5        29.84F
CLARENDON 2WSW   N/A     40  39  96 SW5       29.84S
CLAUDE 12SW      N/A     39  39 100 CALM      29.83S
DIMMITT 2NE      N/A     42  41  97 SW14      29.83S
FLOYDADA 2NNE    N/A     42  41  99 S10       29.83F
FRIONA 2NE       N/A     41  40  95 SW8       29.83S
GOODLETT 3W      N/A     43  42  95 S3        29.85F
HART 3N          N/A     43  42  98 SW9       29.83R
HEREFORD 2NW     N/A     42  40  91 SW12      29.83R
MCLEAN 1E        N/A     39  38  98 S8        29.82S WCI  33
MEMPHIS 1NE      N/A     42  42  99 SE2       29.85F
MULESHOE 2SSW    N/A     41  40  98 SW8       29.84S
OLTON 6S         N/A     44  42  95 S10       29.83F
PALO DURO SP     N/A     40  40  97 S3        29.84F
PAMPA 2E         N/A     38  38  99 S8        29.82S WCI  32
PLAINVIEW 1S     N/A     43  43  99 SW12      29.82F
SILVERTON 7ESE   N/A     42  42  99 SW10      29.83F
TULIA 2ENE       N/A     42  42  99 SW9       29.83R
TURKEY 2WSW      N/A     42  41  99 SE5       29.83F
UMBARGER 3NNE    N/A     42  41  95 SW6       29.83S
$$

TXZ033>036-039>041-045>048-010600
TEXAS TECH WEST TEXAS MESONET/SOUTH PLAINS

CITY           SKY/WX    TMP DP  RH WIND       PRES   REMARKS
AIKEN 3WSW       N/A     42  42 100 S8        29.84F
ANDREWS 2NE      N/A     49  47  92 S3        29.89S
BROWNFIELD 2S    N/A     44  44  98 SW6       29.87F
DENVR CTY 7WNW   N/A     46  45  97 SW9       29.88R
GAIL 2ESE        N/A     49  47  96 S3        29.89R
LAMESA 2SE       N/A     48  47  99 SW6       29.89S
LEVELLAND 4S     N/A     44  42  95 S12       29.85F
LUBBOCK 3WNW     N/A     45  44  97 S13       29.85F
MORTON 1ENE      N/A     44  43  97 SW14      29.84F
ODONNELL 1N      N/A     47  46  97 S5        29.89R
PLAINS 3N        N/A     46  45  97 SW8       29.87F
RALLS 1SE        N/A     43  42  99 S9        29.85F
REESE CENTER     N/A     43  42  99 S14       29.84F
SEAGRAVES 1SW    N/A     46  46  99 SW7       29.88S
SEMINOLE 2NNE    N/A     47  46  97 SW3       29.88S
SLATON 2NE       N/A     42  42  99 SW3       29.86F
SNYDER 3E        N/A     49  49  99 SW7       29.88F
SUNDOWN 8SW      N/A     45  45  99 SW10      29.86F
TAHOKA 3NNE      N/A     46  46 100 S6        29.87S
WOLFFORTH 6SSW   N/A     45  45  99 S8        29.86F
$$

TXZ031-032-036>038-042>044-010600-
TEXAS TECH WEST TEXAS MESONET/ROLLING PLAINS

CITY           SKY/WX    TMP DP  RH WIND       PRES   REMARKS
ASPERMONT 3NE    N/A     49  48  99 SW1       29.88R
FLUVANNA 3WNW  LGT RAIN  47  46  96 SW2       29.88S
GRAHAM 5SSW      N/A     45  44  97 CALM      29.88R
GUTHRIE 10WSW    N/A     46  45  97 S2        29.86F
HASKELL 1NW    LGT RAIN  48  48  97 SW2       29.87S
JAYTON 1SSE      N/A     47  46  98 SW2       29.88S
KNOX CITY 3NW    N/A     48  45  91 S1        29.87F
LK A HENRY 1NW   N/A     46  45  98 SE1       29.87F
NORTHFIELD 1S    N/A     43  43  99 S6        29.84F
ODELL 4ENE       N/A     44  44 100 S2        29.87F
PADUCAH 10SW     N/A     44  44  98 S1        29.86F
POST 1NE         N/A     44  44  98 SW1       29.88R
RRING SPRGS 3N   N/A     43  42  99 S6        29.84F
SEYMOUR 3NW      N/A     47  46  95 S2        29.87S
SPUR 1W          N/A     44  44  97 SW1       29.87S
WEINERT 2NNE     N/A     48  47  97 S1        29.87S
WHITE RVR 6NE    N/A     44  43  98 S1        29.86F
$$

TXZ052-054-060>062-072-078-127-140-154-169-010600-
TEXAS TECH WEST TEXAS MESONET/PERMIAN BASIN/
CONCHO VALLEY/BIG COUNTRY/EDWARDS PLATEAU

CITY           SKY/WX    TMP DP  RH WIND       PRES   REMARKS
COYANOSA 2N      N/A     47  46  98 SE3       29.90F
JUNCTION 1SSW    N/A     56  55  94 S1        29.91R
MERTZON 3NNE     N/A     56  53  89 W8        29.94R
SAN ANGELO 7NW   N/A     57  52  85 SW2       29.90R
STRLNG CT 4WSW   N/A     53  51  95 S8        29.91F
ST LAWRNCE 5SW   N/A     50  49  98 S9        29.89F
SWEETWATR 11SW   N/A     52  52  99 SW7       29.90F
WALL 1E          N/A     57  52  84 SW9       29.90R
$$

TXZ055-058-074-075-080-082-010600-
TEXAS TECH WEST TEXAS MESONET/FAR WEST/SOUTHWEST MOUNTAINS/TRANS PECOS

CITY           SKY/WX    TMP DP  RH WIND       PRES   REMARKS
PRSMN GAP BBNP   N/A     51  50  96 SW3       29.93R
$$